• în România
  • Lista ţărilor
  • Pe 7 zile
  • Temperatura apei
  • Hartă satelitară
  • Meteo pe hartă
  • Widget-uri
  • user-avatar
    Intrare

    Meteo pe oră la Bansko

    Astăzi, 20 Septembrie, Joi

    Timp Temperatura Precipitaţii Vânt Presiune Umiditate
    00:00 +16°C° 0 mm 1 m/s 725 mmHg 67%
    01:00 +16°C° 0 mm 1 m/s 725 mmHg 67%
    02:00 +15°C° 0 mm 1 m/s 724 mmHg 70%
    03:00 +15°C° 0 mm 1 m/s 724 mmHg 69%
    04:00 +15°C° 0 mm 1 m/s 724 mmHg 68%
    05:00 +14°C° 0 mm 1 m/s 724 mmHg 68%
    06:00 +16°C° 0 mm 1 m/s 724 mmHg 62%
    07:00 +19°C° 0 mm 1 m/s 724 mmHg 56%
    08:00 +21°C° 0 mm 1 m/s 725 mmHg 47%
    09:00 +23°C° 0 mm 1 m/s 725 mmHg 41%
    10:00 +25°C° 0 mm 2 m/s 725 mmHg 34%
    11:00 +27°C° 0 mm 2 m/s 725 mmHg 28%
    12:00 +28°C° 0 mm 2 m/s 724 mmHg 26%
    13:00 +29°C° 0 mm 2 m/s 724 mmHg 24%
    14:00 +29°C° 0 mm 2 m/s 724 mmHg 25%
    15:00 +29°C° 0 mm 2 m/s 724 mmHg 26%
    16:00 +28°C° 0 mm 2 m/s 724 mmHg 27%
    17:00 +28°C° 0 mm 2 m/s 723 mmHg 28%
    18:00 +25°C° 0 mm 2 m/s 723 mmHg 34%
    19:00 +22°C° 0 mm 1 m/s 723 mmHg 41%
    20:00 +19°C° 0 mm 1 m/s 723 mmHg 48%
    21:00 +19°C° 0 mm 1 m/s 723 mmHg 49%
    22:00 +18°C° 0 mm 1 m/s 723 mmHg 50%
    23:00 +16°C° 0 mm 1 m/s 723 mmHg 51%

    Mâine, 21 Septembrie, Vineri

    Timp Temperatura Precipitaţii Vânt Presiune Umiditate
    00:00 +16°C° 0 mm 1 m/s 723 mmHg 51%
    01:00 +16°C° 0 mm 1 m/s 723 mmHg 51%
    02:00 +15°C° 0 mm 1 m/s 723 mmHg 51%
    03:00 +15°C° 0 mm 1 m/s 723 mmHg 51%
    04:00 +15°C° 0 mm 1 m/s 723 mmHg 51%
    05:00 +15°C° 0 mm 1 m/s 723 mmHg 51%
    06:00 +16°C° 0 mm 1 m/s 723 mmHg 47%
    07:00 +19°C° 0 mm 1 m/s 723 mmHg 44%
    08:00 +21°C° 0 mm 1 m/s 724 mmHg 41%
    09:00 +23°C° 0 mm 1 m/s 724 mmHg 36%
    10:00 +26°C° 0 mm 1 m/s 724 mmHg 31%
    11:00 +28°C° 0 mm 1 m/s 724 mmHg 26%
    12:00 +29°C° 0 mm 1 m/s 724 mmHg 25%
    13:00 +29°C° 0 mm 1 m/s 723 mmHg 23%
    14:00 +30°C° 0 mm 1 m/s 723 mmHg 22%
    15:00 +30°C° 0 mm 1 m/s 723 mmHg 24%
    16:00 +29°C° 0 mm 1 m/s 722 mmHg 25%
    17:00 +28°C° 0 mm 1 m/s 722 mmHg 27%
    18:00 +26°C° 0 mm 1 m/s 722 mmHg 32%
    19:00 +23°C° 0 mm 1 m/s 722 mmHg 37%
    20:00 +20°C° 0 mm 1 m/s 722 mmHg 41%
    21:00 +20°C° 0 mm 1 m/s 722 mmHg 43%
    22:00 +19°C° 0 mm 1 m/s 722 mmHg 46%
    23:00 +19°C° 0 mm 1 m/s 722 mmHg 48%

    Poimâine, 22 Septembrie, Sâmbătă

    Timp Temperatura Precipitaţii Vânt Presiune Umiditate
    00:00 +18°C° 0 mm 1 m/s 722 mmHg 49%
    01:00 +18°C° 0 mm 1 m/s 722 mmHg 50%
    02:00 +18°C° 0 mm 1 m/s 722 mmHg 52%
    03:00 +16°C° 0 mm 1 m/s 722 mmHg 53%
    04:00 +16°C° 0 mm 1 m/s 722 mmHg 54%
    05:00 +16°C° 0 mm 1 m/s 722 mmHg 54%
    06:00 +19°C° 0 mm 1 m/s 722 mmHg 50%
    07:00 +20°C° 0 mm 1 m/s 723 mmHg 46%
    08:00 +20°C° 0 mm 0 m/s 723 mmHg 42%
    09:00 +25°C° 0 mm 1 m/s 723 mmHg 37%
    10:00 +27°C° 0 mm 1 m/s 723 mmHg 31%
    11:00 +30°C° 0 mm 1 m/s 723 mmHg 25%
    12:00 +30°C° 0 mm 1 m/s 723 mmHg 24%
    13:00 +31°C° 0 mm 1 m/s 723 mmHg 23%
    14:00 +32°C° 0 mm 1 m/s 722 mmHg 22%
    15:00 +31°C° 0 mm 1 m/s 722 mmHg 23%
    16:00 +30°C° 0 mm 1 m/s 722 mmHg 25%
    17:00 +30°C° 0 mm 1 m/s 722 mmHg 26%
    18:00 +27°C° 0 mm 1 m/s 722 mmHg 31%
    19:00 +24°C° 0 mm 1 m/s 722 mmHg 36%
    20:00 +22°C° 0 mm 1 m/s 722 mmHg 41%
    21:00 +21°C° 0 mm 1 m/s 723 mmHg 45%
    22:00 +20°C° 0 mm 1 m/s 723 mmHg 48%
    23:00 +20°C° 0 mm 1 m/s 724 mmHg 51%

    23 Septembrie, Duminică

    Timp Temperatura Precipitaţii Vânt Presiune Umiditate
    00:00 +19°C° 0 mm 1 m/s 724 mmHg 56%
    01:00 +18°C° 0 mm 2 m/s 724 mmHg 60%
    02:00 +17°C° 0 mm 2 m/s 724 mmHg 65%
    03:00 +17°C° 0 mm 2 m/s 724 mmHg 69%
    04:00 +17°C° 0 mm 2 m/s 724 mmHg 73%
    05:00 +16°C° 0 mm 2 m/s 724 mmHg 77%
    06:00 +18°C° 0 mm 2 m/s 725 mmHg 73%
    07:00 +19°C° 0 mm 2 m/s 725 mmHg 69%
    08:00 +20°C° 0 mm 2 m/s 726 mmHg 65%
    09:00 +24°C° 0 mm 2 m/s 726 mmHg 56%
    10:00 +26°C° 0 mm 2 m/s 726 mmHg 48%
    11:00 +28°C° 0 mm 2 m/s 726 mmHg 40%
    12:00 +29°C° 0 mm 2 m/s 726 mmHg 37%
    13:00 +30°C° 0 mm 2 m/s 726 mmHg 34%
    14:00 +31°C° 0 mm 2 m/s 725 mmHg 32%
    15:00 +30°C° 0 mm 2 m/s 725 mmHg 33%
    16:00 +30°C° 0 mm 1 m/s 725 mmHg 34%
    17:00 +29°C° 0 mm 1 m/s 725 mmHg 35%
    18:00 +27°C° 0 mm 1 m/s 725 mmHg 42%
    19:00 +24°C° 0 mm 1 m/s 725 mmHg 48%
    20:00 +22°C° 0 mm 1 m/s 725 mmHg 55%
    21:00 +21°C° 0 mm 1 m/s 725 mmHg 57%
    22:00 +20°C° 0 mm 1 m/s 725 mmHg 59%
    23:00 +20°C° 0 mm 1 m/s 725 mmHg 60%

    24 Septembrie, Luni

    Timp Temperatura Precipitaţii Vânt Presiune Umiditate
    00:00 +20°C° 0 mm 1 m/s 725 mmHg 61%
    01:00 +19°C° 0 mm 1 m/s 725 mmHg 63%
    02:00 +19°C° 0 mm 1 m/s 724 mmHg 64%
    03:00 +19°C° 0 mm 1 m/s 724 mmHg 64%
    04:00 +19°C° 0 mm 1 m/s 723 mmHg 65%
    05:00 +18°C° 0 mm 1 m/s 723 mmHg 65%
    06:00 +20°C° 0 mm 1 m/s 723 mmHg 61%
    07:00 +20°C° 0 mm 2 m/s 723 mmHg 56%
    08:00 +23°C° 0 mm 2 m/s 722 mmHg 52%
    09:00 +25°C° 0 mm 2 m/s 722 mmHg 45%
    10:00 +27°C° 0 mm 3 m/s 722 mmHg 39%
    11:00 +30°C° 0 mm 3 m/s 722 mmHg 33%
    12:00 +31°C° 0 mm 3 m/s 721 mmHg 31%
    13:00 +31°C° 0 mm 3 m/s 721 mmHg 29%
    14:00 +33°C° 0 mm 3 m/s 720 mmHg 27%
    15:00 +33°C° 0 mm 3 m/s 720 mmHg 28%
    16:00 +32°C° 0 mm 2 m/s 720 mmHg 29%
    17:00 +31°C° 0 mm 2 m/s 720 mmHg 30%
    18:00 +28°C° 0 mm 2 m/s 720 mmHg 38%
    19:00 +25°C° 0 mm 2 m/s 721 mmHg 46%
    20:00 +21°C° 0 mm 3 m/s 721 mmHg 55%
    21:00 +20°C° 0 mm 3 m/s 722 mmHg 60%
    22:00 +18°C° 0 mm 3 m/s 722 mmHg 65%
    23:00 +17°C° 0 mm 3 m/s 723 mmHg 70%

    25 Septembrie, Marţi

    Timp Temperatura Precipitaţii Vânt Presiune Umiditate
    00:00 +16°C° 0 mm 3 m/s 723 mmHg 71%
    01:00 +14°C° 0 mm 3 m/s 724 mmHg 71%
    02:00 +14°C° 0 mm 3 m/s 724 mmHg 71%
    03:00 +13°C° 0 mm 3 m/s 724 mmHg 71%
    04:00 +12°C° 0 mm 3 m/s 724 mmHg 71%
    05:00 +12°C° 0 mm 3 m/s 725 mmHg 72%
    06:00 +12°C° 0 mm 3 m/s 725 mmHg 67%
    07:00 +13°C° 0 mm 3 m/s 725 mmHg 63%
    08:00 +14°C° 0 mm 3 m/s 725 mmHg 59%
    09:00 +15°C° 0 mm 4 m/s 726 mmHg 54%
    10:00 +17°C° 0 mm 4 m/s 726 mmHg 49%
    11:00 +18°C° 0 mm 4 m/s 726 mmHg 44%
    12:00 +17°C° 0.1 mm 4 m/s 726 mmHg 46%
    13:00 +15°C° 0.1 mm 4 m/s 726 mmHg 47%
    14:00 +14°C° 0.1 mm 4 m/s 726 mmHg 49%
    15:00 +13°C° 0.3 mm 4 m/s 726 mmHg 54%
    16:00 +12°C° 0.3 mm 3 m/s 726 mmHg 59%
    17:00 +11°C° 0.3 mm 3 m/s 726 mmHg 64%
    18:00 +10°C° 0.2 mm 3 m/s 727 mmHg 68%
    19:00 +9°C° 0.2 mm 2 m/s 727 mmHg 71%
    20:00 +9°C° 0.2 mm 2 m/s 727 mmHg 75%
    21:00 +9°C° 0.1 mm 2 m/s 728 mmHg 75%
    22:00 +8°C° 0.1 mm 2 m/s 728 mmHg 76%
    23:00 +8°C° 0.1 mm 2 m/s 728 mmHg 76%
    Arată mai mult